Regional Weather Roundup
Issued by NWS

Home | Current Version | Previous Version | Text Only | Print | Product List | Glossary Off
Versions: 1 2 3 4 5 6 7 8 9 10 11 12 13 14 15 16 17 18 19 20 21 22 23 24 25 26 27 28 29 30 31 32 33 34 35 36 37 38 39 40 41 42 43 44 45 46 47 48 49 50

000
ASUS43 KLMK 310202
RWRKY
KENTUCKY REGIONAL WEATHER ROUNDUP
NATIONAL WEATHER SERVICE LOUISVILLE KY
1000 PM EDT SAT AUG 30 2014

NOTE "FAIR" INDICATES FEW OR NO CLOUDS BELOW 12,000 FEET
WITH NO SIGNIFICANT WEATHER AND/OR OBSTRUCTIONS TO VISIBILITY.

KYZ001>023-026-027-061>063-070>075-310300-
WESTERN AND SOUTH CENTRAL KENTUCKY

CITY           SKY/WX    TMP DP  RH WIND       PRES   REMARKS
PADUCAH        CLOUDY    74  71  91 SE7       29.99F
HENDERSON      CLOUDY    72  66  83 S5        30.01R
OWENSBORO      NOT AVBL
HOPKINSVILLE   CLOUDY    75  75 100 SE7       30.05R
BOWLING GREEN  RAIN      73  72  96 E6        30.08R FOG
GLASGOW        RAIN      71  71 100 CALM      30.09R
$$

KYZ024-025-028>034-038-045-046-053-310300-
NORTH CENTRAL KENTUCKY

CITY           SKY/WX    TMP DP  RH WIND       PRES   REMARKS
LOUISVILLE/SDF CLOUDY    74  70  87 CALM      30.04R
LOUISVILLE/LOU LGT RAIN  74  70  87 CALM      30.05R
FORT KNOX      CLOUDY    72  72 100 S8        30.04S
$$

KYZ035>037-039>044-047>052-055>060-089>105-310300-
NORTHEAST KENTUCKY

CITY           SKY/WX    TMP DP  RH WIND       PRES   REMARKS
LEXINGTON      LGT RAIN  75  70  84 CALM      30.08R
COVINGTON      CLOUDY    72  69  90 S5        30.06R FOG
FRANKFORT      CLOUDY    73  71  93 SW3       30.07R
$$

KYZ054-064>069-076>088-106>120-310300-
SOUTHEAST KENTUCKY

CITY           SKY/WX    TMP DP  RH WIND       PRES   REMARKS
JACKSON        CLOUDY    78  68  71 CALM      30.11R
LONDON         LGT RAIN  75  69  81 CALM      30.11R
SOMERSET       LGT RAIN  72  72 100 CALM      30.11F
MIDDLESBORO    LGT RAIN  73  72  97 W3        30.14R
MONTICELLO     CLOUDY    72  71  96 CALM      30.12R
$$




USA.gov is the U.S. government's official web portal to all federal, state and local government web resources and services.